Time,TemperatureF,DewpointF,PressureIn,WindDirection,WindDirectionDegrees,WindSpeedMPH,WindSpeedGustMPH,Humidity,HourlyPrecipIn,Conditions,Clouds,dailyrainin,SoftwareType,DateUTC
2013-12-20 00:14:00,43.2,40.0,29.86,SSW,198,7.0,10.0,89,0.00,,,0.00,weatherlink.com 1.10,2013-12-20 05:14:00,
2013-12-20 00:29:00,43.4,40.0,29.86,SSE,154,6.0,10.0,89,0.00,,,0.00,weatherlink.com 1.10,2013-12-20 05:29:00,
2013-12-20 00:44:00,43.5,41.0,29.85,South,179,4.0,10.0,91,0.00,,,0.00,weatherlink.com 1.10,2013-12-20 05:44:00,
2013-12-20 00:59:00,43.5,41.0,29.84,South,191,5.0,10.0,90,0.00,,,0.00,weatherlink.com 1.10,2013-12-20 05:59:00,
2013-12-20 01:14:00,43.5,41.0,29.84,South,170,4.0,10.0,90,0.00,,,0.00,weatherlink.com 1.10,2013-12-20 06:14:00,
2013-12-20 01:29:00,43.4,41.0,29.84,South,190,5.0,8.0,91,0.00,,,0.00,weatherlink.com 1.10,2013-12-20 06:29:00,
2013-12-20 01:44:00,43.3,41.0,29.83,SSW,203,5.0,8.0,91,0.00,,,0.00,weatherlink.com 1.10,2013-12-20 06:44:00,
2013-12-20 01:59:00,43.7,41.0,29.83,SSE,148,4.0,10.0,91,0.00,,,0.00,weatherlink.com 1.10,2013-12-20 06:59:00,
2013-12-20 02:14:00,43.6,41.0,29.83,SE,135,3.0,8.0,91,0.00,,,0.00,weatherlink.com 1.10,2013-12-20 07:14:00,
2013-12-20 02:29:00,43.6,41.0,29.82,SSE,149,4.0,8.0,91,0.00,,,0.00,weatherlink.com 1.10,2013-12-20 07:29:00,
2013-12-20 02:44:00,43.7,41.0,29.82,South,172,7.0,9.0,91,0.00,,,0.00,weatherlink.com 1.10,2013-12-20 07:44:00,
2013-12-20 02:59:00,43.9,42.0,29.82,SSE,155,4.0,10.0,91,0.00,,,0.00,weatherlink.com 1.10,2013-12-20 07:59:00,
2013-12-20 03:14:00,44.1,42.0,29.82,SSW,201,6.0,11.0,91,0.00,,,0.00,weatherlink.com 1.10,2013-12-20 08:14:00,
2013-12-20 03:30:00,44.0,42.0,29.82,SE,146,6.0,11.0,92,0.00,,,0.00,weatherlink.com 1.10,2013-12-20 08:30:00,
2013-12-20 03:44:00,43.8,42.0,29.82,SSW,193,6.0,13.0,92,0.00,,,0.00,weatherlink.com 1.10,2013-12-20 08:44:00,
2013-12-20 03:59:00,43.5,42.0,29.81,SE,129,2.0,7.0,93,0.00,,,0.00,weatherlink.com 1.10,2013-12-20 08:59:00,
2013-12-20 04:15:00,43.3,42.0,29.81,SSE,162,8.0,10.0,94,0.02,,,0.02,weatherlink.com 1.10,2013-12-20 09:15:00,
2013-12-20 04:30:00,42.9,41.0,29.80,SE,141,3.0,9.0,94,0.03,,,0.03,weatherlink.com 1.10,2013-12-20 09:30:00,
2013-12-20 04:45:00,42.9,42.0,29.79,SSE,149,2.0,10.0,95,0.04,,,0.04,weatherlink.com 1.10,2013-12-20 09:45:00,
2013-12-20 05:00:00,42.8,42.0,29.79,SE,144,2.0,8.0,95,0.04,,,0.04,weatherlink.com 1.10,2013-12-20 10:00:00,
2013-12-20 05:15:00,42.7,42.0,29.78,SSW,195,6.0,8.0,96,0.03,,,0.05,weatherlink.com 1.10,2013-12-20 10:15:00,
2013-12-20 05:30:00,42.8,42.0,29.78,SSE,160,2.0,7.0,96,0.02,,,0.05,weatherlink.com 1.10,2013-12-20 10:30:00,
2013-12-20 05:45:00,43.1,42.0,29.78,SSE,160,3.0,7.0,96,0.02,,,0.06,weatherlink.com 1.10,2013-12-20 10:45:00,
2013-12-20 06:00:00,43.2,42.0,29.78,South,182,4.0,10.0,96,0.03,,,0.07,weatherlink.com 1.10,2013-12-20 11:00:00,
2013-12-20 06:15:00,43.5,43.0,29.78,South,191,9.0,10.0,96,0.03,,,0.08,weatherlink.com 1.10,2013-12-20 11:15:00,
2013-12-20 06:30:00,43.5,43.0,29.78,South,190,3.0,9.0,97,0.04,,,0.09,weatherlink.com 1.10,2013-12-20 11:30:00,
2013-12-20 06:45:00,43.5,43.0,29.78,SSE,162,6.0,9.0,96,0.03,,,0.09,weatherlink.com 1.10,2013-12-20 11:45:00,
2013-12-20 07:00:00,43.4,43.0,29.78,SSW,211,6.0,9.0,97,0.03,,,0.10,weatherlink.com 1.10,2013-12-20 12:00:00,
2013-12-20 07:15:00,43.7,43.0,29.78,SW,235,7.0,11.0,97,0.02,,,0.10,weatherlink.com 1.10,2013-12-20 12:15:00,
2013-12-20 07:30:00,43.7,43.0,29.78,South,180,3.0,9.0,97,0.01,,,0.10,weatherlink.com 1.10,2013-12-20 12:30:00,
2013-12-20 07:45:00,43.6,43.0,29.78,South,188,4.0,6.0,97,0.01,,,0.10,weatherlink.com 1.10,2013-12-20 12:45:00,
2013-12-20 08:00:00,43.5,43.0,29.78,SSW,200,2.0,6.0,97,0.00,,,0.10,weatherlink.com 1.10,2013-12-20 13:00:00,
2013-12-20 08:15:00,44.0,43.0,29.78,South,182,3.0,8.0,97,0.00,,,0.10,weatherlink.com 1.10,2013-12-20 13:15:00,
2013-12-20 08:30:00,44.0,43.0,29.78,South,181,3.0,6.0,97,0.00,,,0.10,weatherlink.com 1.10,2013-12-20 13:30:00,
2013-12-20 08:45:00,44.2,43.0,29.78,SE,134,4.0,7.0,97,0.00,,,0.10,weatherlink.com 1.10,2013-12-20 13:45:00,
2013-12-20 09:01:00,44.3,44.0,29.78,SSW,194,3.0,5.0,97,0.00,,,0.10,weatherlink.com 1.10,2013-12-20 14:01:00,
2013-12-20 09:15:00,44.4,44.0,29.78,SSW,193,3.0,5.0,97,0.00,,,0.10,weatherlink.com 1.10,2013-12-20 14:15:00,
2013-12-20 09:30:00,44.5,44.0,29.79,SSE,158,2.0,6.0,97,0.00,,,0.10,weatherlink.com 1.10,2013-12-20 14:30:00,
2013-12-20 09:45:00,44.7,44.0,29.79,SE,141,2.0,4.0,97,0.00,,,0.10,weatherlink.com 1.10,2013-12-20 14:45:00,
2013-12-20 10:00:00,44.7,44.0,29.80,SE,144,4.0,5.0,97,0.02,,,0.12,weatherlink.com 1.10,2013-12-20 15:00:00,
2013-12-20 10:15:00,44.7,44.0,29.80,SE,139,0.0,3.0,97,0.03,,,0.13,weatherlink.com 1.10,2013-12-20 15:15:00,
2013-12-20 10:30:00,44.6,44.0,29.80,North,1,0.0,1.0,97,0.03,,,0.13,weatherlink.com 1.10,2013-12-20 15:30:00,
2013-12-20 10:45:00,45.1,44.0,29.80,SE,143,1.0,2.0,97,0.03,,,0.13,weatherlink.com 1.10,2013-12-20 15:45:00,
2013-12-20 11:00:00,45.3,45.0,29.80,SE,144,0.0,1.0,97,0.01,,,0.13,weatherlink.com 1.10,2013-12-20 16:00:00,
2013-12-20 11:15:00,44.3,43.0,29.79,ESE,116,0.0,1.0,96,0.00,,,0.13,weatherlink.com 1.10,2013-12-20 16:15:00,
2013-12-20 11:30:00,45.0,44.0,29.79,ESE,109,0.0,2.0,97,0.02,,,0.15,weatherlink.com 1.10,2013-12-20 16:30:00,
2013-12-20 11:45:00,44.0,43.0,29.78,SSE,153,0.0,1.0,96,0.02,,,0.15,weatherlink.com 1.10,2013-12-20 16:45:00,
2013-12-20 12:00:00,43.6,43.0,29.77,SE,133,0.0,0.0,97,0.02,,,0.15,weatherlink.com 1.10,2013-12-20 17:00:00,
2013-12-20 12:15:00,43.9,43.0,29.76,ESE,123,1.0,1.0,97,0.02,,,0.15,weatherlink.com 1.10,2013-12-20 17:15:00,
2013-12-20 12:30:00,43.8,43.0,29.76,ESE,119,0.0,0.0,97,0.01,,,0.16,weatherlink.com 1.10,2013-12-20 17:30:00,
2013-12-20 12:45:00,43.9,43.0,29.75,ESE,120,0.0,1.0,97,0.04,,,0.19,weatherlink.com 1.10,2013-12-20 17:45:00,
2013-12-20 13:00:00,44.3,44.0,29.74,SE,134,1.0,1.0,97,0.04,,,0.19,weatherlink.com 1.10,2013-12-20 18:00:00,
2013-12-20 13:15:00,44.6,44.0,29.73,ESE,123,1.0,2.0,97,0.07,,,0.22,weatherlink.com 1.10,2013-12-20 18:15:00,
2013-12-20 13:30:00,44.8,44.0,29.73,SE,140,0.0,2.0,97,0.07,,,0.23,weatherlink.com 1.10,2013-12-20 18:30:00,
2013-12-20 13:45:00,45.2,44.0,29.73,SSE,155,1.0,2.0,97,0.04,,,0.23,weatherlink.com 1.10,2013-12-20 18:45:00,
2013-12-20 14:01:00,45.7,45.0,29.72,SSE,153,1.0,5.0,98,0.05,,,0.24,weatherlink.com 1.10,2013-12-20 19:01:00,
2013-12-20 14:16:00,46.1,46.0,29.72,SSE,153,1.0,3.0,98,0.02,,,0.24,weatherlink.com 1.10,2013-12-20 19:16:00,
2013-12-20 14:31:00,47.3,47.0,29.71,SE,146,5.0,7.0,98,0.01,,,0.24,weatherlink.com 1.10,2013-12-20 19:31:00,
2013-12-20 14:46:00,48.0,48.0,29.71,South,188,5.0,8.0,98,0.01,,,0.24,weatherlink.com 1.10,2013-12-20 19:46:00,
2013-12-20 15:01:00,48.5,48.0,29.70,South,183,5.0,8.0,98,0.00,,,0.24,weatherlink.com 1.10,2013-12-20 20:01:00,
2013-12-20 15:16:00,49.1,49.0,29.71,South,172,6.0,8.0,98,0.00,,,0.24,weatherlink.com 1.10,2013-12-20 20:16:00,
2013-12-20 15:31:00,49.6,49.0,29.70,South,172,8.0,9.0,98,0.00,,,0.24,weatherlink.com 1.10,2013-12-20 20:31:00,
2013-12-20 15:46:00,50.1,50.0,29.70,South,178,5.0,12.0,98,0.01,,,0.25,weatherlink.com 1.10,2013-12-20 20:46:00,
2013-12-20 16:02:00,50.7,50.0,29.71,South,173,9.0,11.0,98,0.01,,,0.25,weatherlink.com 1.10,2013-12-20 21:02:00,
2013-12-20 16:16:00,51.1,51.0,29.70,South,184,6.0,13.0,98,0.01,,,0.25,weatherlink.com 1.10,2013-12-20 21:16:00,
2013-12-20 16:31:00,51.4,51.0,29.71,South,191,7.0,15.0,98,0.01,,,0.25,weatherlink.com 1.10,2013-12-20 21:31:00,
2013-12-20 16:46:00,51.6,51.0,29.71,SSW,197,6.0,12.0,98,0.00,,,0.25,weatherlink.com 1.10,2013-12-20 21:46:00,
2013-12-20 17:01:00,51.7,51.0,29.72,SSW,207,5.0,14.0,98,0.00,,,0.25,weatherlink.com 1.10,2013-12-20 22:01:00,
2013-12-20 17:16:00,52.0,52.0,29.72,South,174,9.0,14.0,98,0.00,,,0.25,weatherlink.com 1.10,2013-12-20 22:16:00,
2013-12-20 17:31:00,52.4,52.0,29.72,SSW,197,6.0,12.0,98,0.01,,,0.26,weatherlink.com 1.10,2013-12-20 22:31:00,
2013-12-20 17:46:00,52.5,52.0,29.72,SSW,198,4.0,10.0,98,0.04,,,0.29,weatherlink.com 1.10,2013-12-20 22:46:00,
2013-12-20 18:01:00,52.9,52.0,29.72,South,188,8.0,14.0,98,0.04,,,0.29,weatherlink.com 1.10,2013-12-20 23:01:00,
2013-12-20 18:16:00,52.9,52.0,29.73,SW,218,7.0,9.0,98,0.04,,,0.29,weatherlink.com 1.10,2013-12-20 23:16:00,
2013-12-20 18:31:00,53.0,53.0,29.73,SW,233,3.0,10.0,98,0.03,,,0.29,weatherlink.com 1.10,2013-12-20 23:31:00,
2013-12-20 18:46:00,52.7,52.0,29.73,SSW,211,4.0,7.0,98,0.00,,,0.29,weatherlink.com 1.10,2013-12-20 23:46:00,
2013-12-20 19:01:00,52.5,52.0,29.73,SSW,207,5.0,7.0,98,0.00,,,0.29,weatherlink.com 1.10,2013-12-21 00:01:00,
2013-12-20 19:16:00,52.5,52.0,29.73,SW,217,2.0,7.0,98,0.02,,,0.31,weatherlink.com 1.10,2013-12-21 00:16:00,
2013-12-20 19:31:00,50.3,49.0,29.74,WNW,290,4.0,5.0,95,0.02,,,0.31,weatherlink.com 1.10,2013-12-21 00:31:00,
2013-12-20 19:46:00,45.7,45.0,29.74,West,271,1.0,3.0,96,0.02,,,0.31,weatherlink.com 1.10,2013-12-21 00:46:00,
2013-12-20 20:01:00,44.5,44.0,29.73,West,271,0.0,1.0,97,0.02,,,0.31,weatherlink.com 1.10,2013-12-21 01:01:00,
2013-12-20 20:16:00,44.1,43.0,29.73,West,271,0.0,0.0,97,0.00,,,0.31,weatherlink.com 1.10,2013-12-21 01:16:00,
2013-12-20 20:31:00,44.2,43.0,29.72,ENE,68,0.0,2.0,97,0.00,,,0.31,weatherlink.com 1.10,2013-12-21 01:31:00,
2013-12-20 20:46:00,45.2,45.0,29.72,ESE,107,0.0,1.0,98,0.00,,,0.31,weatherlink.com 1.10,2013-12-21 01:46:00,
2013-12-20 21:01:00,43.4,43.0,29.74,West,281,4.0,16.0,97,0.00,,,0.31,weatherlink.com 1.10,2013-12-21 02:01:00,
2013-12-20 21:16:00,42.9,42.0,29.73,WSW,240,0.0,3.0,97,0.00,,,0.31,weatherlink.com 1.10,2013-12-21 02:16:00,
2013-12-20 21:31:00,42.9,42.0,29.74,WSW,238,0.0,1.0,97,0.00,,,0.31,weatherlink.com 1.10,2013-12-21 02:31:00,
2013-12-20 21:46:00,44.0,44.0,29.73,SSE,159,3.0,4.0,98,0.00,,,0.31,weatherlink.com 1.10,2013-12-21 02:46:00,
2013-12-20 22:01:00,47.1,47.0,29.74,SSW,208,4.0,10.0,98,0.00,,,0.31,weatherlink.com 1.10,2013-12-21 03:01:00,
2013-12-20 22:16:00,48.4,48.0,29.74,SSW,204,6.0,11.0,98,0.00,,,0.31,weatherlink.com 1.10,2013-12-21 03:16:00,
2013-12-20 22:31:00,48.9,48.0,29.74,SW,231,12.0,16.0,98,0.00,,,0.31,weatherlink.com 1.10,2013-12-21 03:31:00,
2013-12-20 22:46:00,47.8,47.0,29.75,West,273,13.0,17.0,98,0.00,,,0.31,weatherlink.com 1.10,2013-12-21 03:46:00,
2013-12-20 23:01:00,46.5,45.0,29.75,WSW,248,9.0,18.0,95,0.00,,,0.31,weatherlink.com 1.10,2013-12-21 04:01:00,
2013-12-20 23:16:00,45.3,44.0,29.76,SW,226,10.0,15.0,95,0.00,,,0.31,weatherlink.com 1.10,2013-12-21 04:16:00,
2013-12-20 23:31:00,44.4,43.0,29.75,SW,226,6.0,11.0,95,0.00,,,0.31,weatherlink.com 1.10,2013-12-21 04:31:00,
2013-12-20 23:46:00,43.4,42.0,29.76,SW,226,8.0,12.0,96,0.00,,,0.31,weatherlink.com 1.10,2013-12-21 04:46:00,